Satellite-Ground Cal/Val Site Overpasses Predictions

Prediction of Satellite NPP Overpassing Cal/Val Site: Antarctic Dome C

Ground Cal/Val Site Location: Latitude: -75.10, Longitude: 123.35; Satellite-Ground Site NADIR distance within 100 km.

Table of predicted overpasses for the next 14.0 days since TLE Epoch: 8/17/2012
Interval Starting Time Ending Time Minimum Distance Time Minimum Distance (km)
1 08/17/2012 14:40:29 08/17/2012 14:40:54 08/17/2012 14:40:42 52.50
2 08/18/2012 07:42:09 08/18/2012 07:42:30 08/18/2012 07:42:20 71.98
3 08/19/2012 07:23:17 08/19/2012 07:23:44 08/19/2012 07:23:30 36.11
4 08/21/2012 15:05:42 08/21/2012 15:05:51 08/21/2012 15:05:47 94.45
5 08/22/2012 14:46:42 08/22/2012 14:47:10 08/22/2012 14:46:56 16.73
6 08/24/2012 07:29:31 08/24/2012 07:30:01 08/24/2012 07:29:46 0.76
7 08/27/2012 14:52:57 08/27/2012 14:53:26 08/27/2012 14:53:11 19.67
8 08/28/2012 14:34:15 08/28/2012 14:34:29 08/28/2012 14:34:22 87.30
9 08/29/2012 07:35:46 08/29/2012 07:36:13 08/29/2012 07:36:00 36.70


NCC Satellite Cal/Val Overpasses Prediction Service
